Location: Columbus
(29.5618°N, 96.6770°W)
Time: 15:59:25
(UTC-05:00)

Iridium 59 - Visible Passes

Search period start: 26 April 2015 00:00
Search period end: 06 May 2015 00:00
Orbit: 776 x 779 km, 86.4° (Epoch: 26 April)

Date Brightness Start Highest point End Pass type
(mag) Time Alt. Az. Time Alt. Az. Time Alt. Az.
26 Apr 5.8 04:07:12 48° NNE 04:07:12 48° NNE 04:11:03 10° N visible
27 Apr 6.8 03:33:57 28° NE 03:33:57 28° NE 03:37:07 10° NNE visible
27 Apr 6.7 05:14:26 18° WNW 05:14:26 18° WNW 05:16:52 10° NW visible
28 Apr 7.6 03:00:41 15° ENE 03:00:41 15° ENE 03:02:28 10° NE visible
28 Apr 6.1 04:41:10 30° NW 04:41:10 30° NW 04:44:20 10° NNW visible
29 Apr 6.0 04:07:53 39° N 04:07:53 39° N 04:11:09 10° N visible
30 Apr 6.6 03:34:35 32° NNE 03:34:35 32° NNE 03:37:31 10° NNE visible
30 Apr 7.1 05:15:04 11° WNW 05:15:04 11° WNW 05:15:36 10° NW visible
01 May 7.3 03:01:16 20° NE 03:01:16 20° NE 03:03:21 10° NNE visible
01 May 6.7 04:41:45 20° NW 04:41:45 20° NW 04:43:56 10° NNW visible
02 May 7.9 02:27:57 10° ENE 02:27:57 10° ENE 02:28:05 10° NE visible
02 May 6.4 04:08:25 29° NNW 04:08:25 29° NNW 04:11:05 10° N visible
03 May 6.6 03:35:05 31° N 03:35:05 31° N 03:37:43 10° N visible
04 May 7.1 03:01:44 23° NNE 03:01:44 23° NNE 03:03:53 10° NNE visible
04 May 7.1 04:42:12 13° NW 04:42:12 13° NW 04:43:09 10° NW visible
05 May 7.7 02:28:22 14° NE 02:28:22 14° NE 02:29:26 10° NE visible
05 May 6.8 04:08:51 21° NW 04:08:51 21° NW 04:10:50 10° NNW visible
